This demonstration page uses our WeatherBlox Daily Observations layout. Learn more.

Left ArrowRight Arrow

40.92945, -100.16068

Hourly Observations for April 12, 2016

Temp ( °F °C ) Dew Point ( °F °C ) Humidity (%) Winds ( mph kmh ) Pressure ( in mb ) Visibility ( mi km ) Precip ( " mm )
12:15 am 00:15 Cloudy 46 7.9 22 -5.3 39 39 SE 9 15 30.24 1024 10 16 N/A
12:35 am 00:35 Partly Cloudy 45 7.1 22 -5.5 41 41 SSE 9 15 30.24 1024 10 16 N/A
12:55 am 00:55 Clear 43 6.3 22 -5.7 42 42 SSE 14 22 30.21 1023 10 16 N/A
1:15 am 01:15 Clear 43 6.1 22 -5.8 43 43 S 14 22 30.21 1023 10 16 N/A
1:35 am 01:35 Clear 42 5.6 21 -6 43 43 S 12 19 30.21 1023 10 16 N/A
1:55 am 01:55 Clear 42 5.5 21 -6 44 44 SSE 12 19 30.24 1024 10 16 N/A
2:15 am 02:15 Clear 43 5.9 21 -5.9 43 43 SSE 13 20 30.24 1024 10 16 N/A
2:35 am 02:35 Clear 42 5.6 22 -5.6 45 45 SSE 12 19 30.21 1023 10 16 N/A
2:55 am 02:55 Clear 42 5.6 21 -6 43 43 SSE 14 22 30.21 1023 10 16 N/A
3:15 am 03:15 Clear 42 5.5 21 -6 44 44 SSE 10 17 30.21 1023 10 16 N/A
3:35 am 03:35 Clear 41 4.9 23 -5.2 48 48 SSE 9 15 30.24 1024 10 16 N/A
3:55 am 03:55 Clear 40 4.7 24 -4.2 53 53 S 10 17 30.24 1024 10 16 N/A
4:15 am 04:15 Clear 41 5.1 26 -3.3 55 55 S 10 17 30.24 1024 10 16 N/A
4:35 am 04:35 Clear 40 4.6 28 -2 63 63 S 9 15 30.24 1024 10 16 N/A
4:55 am 04:55 Clear 39 4 30 -1.1 70 70 S 6 9 30.24 1024 10 16 N/A
5:15 am 05:15 Clear 41 5.2 33 0.6 72 72 S 6 9 30.21 1023 10 16 N/A
5:35 am 05:35 Clear 42 5.4 34 1 74 74 S 6 9 30.21 1023 10 16 N/A
5:55 am 05:55 Clear 43 6 35 1.8 75 75 SSE 5 7 30.21 1023 10 16 N/A
6:15 am 06:15 Clear 43 5.9 36 2 76 76 S 5 7 30.21 1023 10 16 N/A
6:35 am 06:35 Clear 42 5.6 36 2 78 78 E 3 6 30.21 1023 10 16 N/A
6:55 am 06:55 Clear 45 7 37 2.8 75 75 N N/A 30.21 1023 10 16 N/A
7:15 am 07:15 Sunny 44 6.6 37 2.7 76 76 SW 6 9 30.21 1023 10 16 N/A
7:35 am 07:35 Sunny 44 6.7 37 2.8 76 76 N N/A 30.21 1023 10 16 N/A
7:55 am 07:55 Sunny 45 7.2 38 3.3 77 77 SSW 6 9 30.21 1023 10 16 N/A
8:15 am 08:15 Sunny 46 7.8 38 3.6 75 75 N N/A 30.21 1023 10 16 N/A
8:35 am 08:35 Sunny 48 9 40 4.3 73 73 SSW 9 15 30.18 1022 10 16 N/A
8:55 am 08:55 Sunny 49 9.7 40 4.2 69 69 SW 9 15 30.18 1022 10 16 N/A
9:15 am 09:15 Sunny 52 11 39 3.9 62 62 SSW 14 22 30.18 1022 10 16 N/A
9:35 am 09:35 Sunny 53 11.5 39 3.7 59 59 SSW 14 22 30.15 1021 10 16 N/A
9:55 am 09:55 Sunny 55 12.5 38 3.4 54 54 SSW 21 33 30.15 1021 10 16 N/A
10:15 am 10:15 Sunny 55 12.8 38 3.6 54 54 SW 24 39 30.15 1021 10 16 N/A
10:35 am 10:35 Sunny 57 13.7 38 3.3 50 50 SW 21 33 30.12 1020 10 16 N/A
10:55 am 10:55 Sunny 57 13.9 38 3.3 49 49 SSW 23 37 30.12 1020 10 16 N/A
11:15 am 11:15 Sunny 58 14.7 38 3.3 47 47 SSW 24 39 30.09 1019 10 16 N/A
11:35 am 11:35 Sunny 59 15.1 38 3.3 45 45 SSW 18 30 30.09 1019 10 16 N/A
11:55 am 11:55 Sunny 60 15.4 38 3.4 45 45 S 24 39 30.09 1019 10 16 N/A
12:15 pm 12:15 Sunny 61 16.1 38 3.3 43 43 S 23 37 30.06 1018 10 16 N/A
12:35 pm 12:35 Sunny 62 16.6 37 2.8 40 40 SSW 21 33 30.06 1018 10 16 N/A
12:55 pm 12:55 Sunny 63 17.2 36 2 36 36 SSW 24 39 30.06 1018 10 16 N/A
1:15 pm 13:15 Sunny 64 17.8 36 2.3 36 36 SSW 28 44 30.00 1016 10 16 N/A
1:35 pm 13:35 Sunny 65 18.5 35 1.5 32 32 SSW 26 43 30.00 1016 10 16 N/A
1:55 pm 13:55 Sunny 65 18.6 33 0.8 30 30 SSW 26 43 30.00 1016 10 16 N/A
2:15 pm 14:15 Sunny 66 19 33 0.6 29 29 SSW 25 41 29.97 1015 10 16 N/A
2:35 pm 14:35 Sunny 67 19.2 33 0.5 29 29 S 22 35 29.97 1015 10 16 N/A
2:55 pm 14:55 Sunny 67 19.5 33 0.5 28 28 SSW 28 44 29.97 1015 10 16 N/A
3:15 pm 15:15 Sunny 68 20 34 1 28 28 S 24 39 29.97 1015 10 16 N/A
3:35 pm 15:35 Sunny 69 20.4 35 1.4 28 28 SSW 25 41 29.94 1014 10 16 N/A
3:55 pm 15:55 Sunny 69 20.4 34 1 28 28 SSW 25 41 29.94 1014 10 16 N/A
4:15 pm 16:15 Sunny 69 20.7 34 0.9 27 27 SSW 24 39 29.94 1014 10 16 N/A
4:35 pm 16:35 Sunny 70 20.9 34 1.2 27 27 SW 28 44 29.94 1014 10 16 N/A
4:55 pm 16:55 Sunny 69 20.7 34 1.3 28 28 S 23 37 29.91 1013 10 16 N/A
5:15 pm 17:15 Sunny 69 20.7 35 1.6 28 28 SSW 24 39 29.91 1013 10 16 N/A
5:35 pm 17:35 Sunny 69 20.7 35 1.8 29 29 SSW 23 37 29.91 1013 10 16 N/A
5:55 pm 17:55 Sunny 69 20.4 34 1.3 28 28 SSW 20 31 29.91 1013 10 16 N/A
6:15 pm 18:15 Sunny 68 20.2 35 1.5 29 29 SSW 21 33 29.91 1013 10 16 N/A
6:35 pm 18:35 Sunny 68 19.9 35 1.6 30 30 S 25 41 29.91 1013 10 16 N/A
6:55 pm 18:55 Sunny 67 19.5 35 1.5 30 30 SSW 21 33 29.94 1014 10 16 N/A
7:15 pm 19:15 Sunny 66 19.1 35 1.6 31 31 SSW 21 33 29.94 1014 10 16 N/A
7:35 pm 19:35 Sunny 65 18.5 35 1.6 32 32 SSW 21 33 29.94 1014 10 16 N/A
7:55 pm 19:55 Sunny 64 17.7 35 1.5 34 34 SSW 18 30 29.94 1014 10 16 N/A
8:15 pm 20:15 Sunny 62 16.6 35 1.7 37 37 S 13 20 30.00 1016 10 16 N/A
8:35 pm 20:35 Clear 61 15.9 35 1.7 39 39 S 14 22 30.00 1016 10 16 N/A
8:55 pm 20:55 Clear 59 15.1 35 1.7 41 41 S 13 20 30.00 1016 10 16 N/A
9:15 pm 21:15 Clear 58 14.2 35 1.8 43 43 S 15 24 29.97 1015 10 16 N/A
9:35 pm 21:35 Clear 57 14 35 1.7 44 44 S 13 20 30.00 1016 10 16 N/A
9:55 pm 21:55 Clear 57 13.8 35 1.6 44 44 S 13 20 30.00 1016 10 16 N/A
10:15 pm 22:15 Clear 56 13.5 35 1.6 45 45 S 12 19 30.00 1016 10 16 N/A
10:35 pm 22:35 Clear 55 12.6 35 1.8 48 48 S 12 19 30.03 1017 10 16 N/A
10:55 pm 22:55 Clear 54 12.2 35 1.7 49 49 S 8 13 30.03 1017 10 16 N/A
11:15 pm 23:15 Clear 54 12.4 35 1.7 48 48 S 12 19 30.03 1017 10 16 N/A
11:35 pm 23:35 Clear 55 12.5 35 1.7 48 48 S 13 20 30.03 1017 10 16 N/A
11:55 pm 23:55 Clear 54 12.1 35 1.6 49 49 S 10 17 30.03 1017 10 16 N/A

Powered by AerisWeather